SBCZ

Cruzeiro do Sul International Airport

Airport
ICAO code
SBCZ
IATA Code
CZS
Summary
ICAO Region
CARSAM
ICAO Territory
Location

Cruzeiro do Sul, Acre

Serving
Cruzeiro do Sul
Elevation
637 ft
Coordinates
7° 35' 58" S , 72° 46' 10" W
KCC
Metar
SBCZ 231400Z 24005KT CAVOK 28/24 Q1015

Cruzeiro do Sul International Airport is the airport serving Cruzeiro do Sul, Brazil.

Climatology

Tropical rainforest climate (Köppen climate classification Af)

Runways

Designator Length Width Surface Rops
10/28 2400 45 ASP No/No

Airport map

Aerial View

SKYbrary Partners:

Safety knowledge contributed by: